KB9QJM Weather Reports


time (UTC)temp
C
wind
direction
speed
KPH
gust
KPH
rain 1hr
cm
rain 24hr
cm
rain mn
cm
humidity
%
barometer
mb
20260504044600 14 194 16.1 22.5 0.00 0.00 0.00 61 1011.2
20260504043053 14 183 16.1 25.7 0.00 0.00 0.00 61 1011.5
20260504041601 14 176 17.7 24.1 0.00 0.00 0.00 61 1011.5
20260504040057 15 181 12.9 20.9 0.00 0.00 0.00 59 1011.7
20260504034553 15 178 11.3 22.5 0.00 0.00 0.00 59 1011.9
20260504033054 15 184 14.5 27.4 0.00 0.00 0.00 58 1011.9
20260504031550 15 170 17.7 25.7 0.00 0.00 0.00 57 1011.8
20260504030053 15 173 17.7 27.4 0.00 0.00 0.00 57 1012.0
20260504024602 15 177 16.1 25.7 0.00 0.00 0.00 57 1012.1
20260504023053 15 183 16.1 27.4 0.00 0.00 0.00 57 1012.2
20260504021554 16 173 20.9 29.0 0.00 0.00 0.00 55 1011.9
20260504020047 16 169 19.3 29.0 0.00 0.00 0.00 55 1011.7
20260504014551 16 174 17.7 25.7 0.00 0.00 0.00 55 1011.8
20260504013054 16 168 17.7 29.0 0.00 0.00 0.00 55 1011.9
20260504011549 16 173 17.7 27.4 0.00 0.00 0.00 54 1011.9
20260504010049 16 172 17.7 29.0 0.00 0.00 0.00 52 1012.0
20260504004548 17 180 17.7 25.7 0.00 0.00 0.00 52 1012.1
20260504003051 17 154 17.7 29.0 0.00 0.00 0.00 50 1012.3
20260504001546 17 167 16.1 30.6 0.00 0.00 0.00 49 1012.8
20260504000111 17 178 19.3 32.2 0.00 0.00 0.00 49 1012.8
20260503234556 17 184 11.3 25.7 0.00 0.00 0.00 50 1013.1
20260503233045 17 224 19.3 37.0 0.00 0.00 0.00 48 1012.9
20260503231546 17 190 17.7 35.4 0.00 0.00 0.00 49 1012.8
20260503230050 17 206 19.3 51.5 0.00 0.00 0.00 49 1013.0
20260503224546 17 197 22.5 41.8 0.00 0.00 0.00 50 1012.8
20260503223049 17 181 27.4 53.1 0.00 0.00 0.00 50 1012.8
20260503221553 17 208 24.1 46.7 0.00 0.00 0.00 49 1012.7
20260503220049 18 196 29.0 43.5 0.00 0.00 0.00 48 1012.9
20260503214550 17 185 25.7 46.7 0.00 0.00 0.00 47 1012.9
20260503213051 17 180 27.4 49.9 0.00 0.00 0.00 49 1013.3
20260503211559 17 196 27.4 48.3 0.00 0.00 0.00 49 1013.6
20260503210050 17 190 29.0 45.1 0.00 0.00 0.00 48 1013.9
20260503204552 17 196 30.6 40.2 0.00 0.00 0.00 48 1014.1
20260503203105 17 192 20.9 37.0 0.00 0.00 0.00 48 1015.1
20260503201548 17 227 24.1 37.0 0.00 0.00 0.00 47 1015.8
20260503200043 17 213 25.7 46.7 0.00 0.00 0.00 47 1015.7
20260503194554 17 233 27.4 49.9 0.00 0.00 0.00 48 1015.9
20260503193050 17 250 27.4 48.3 0.00 0.00 0.00 47 1015.8
20260503191547 17 218 29.0 51.5 0.00 0.00 0.00 47 1016.1
20260503190049 16 159 25.7 48.3 0.00 0.00 0.00 46 1016.4
20260503184550 16 229 22.5 40.2 0.00 0.00 0.00 50 1016.7
20260503183049 16 173 25.7 45.1 0.00 0.00 0.00 47 1017.1
20260503181600 16 178 20.9 38.6 0.00 0.00 0.00 50 1017.4
20260503180049 16 187 27.4 41.8 0.00 0.00 0.00 48 1017.9
20260503174551 16 185 20.9 40.2 0.00 0.00 0.00 49 1018.2
20260503173056 16 213 20.9 37.0 0.00 0.00 0.00 50 1018.5
20260503171547 15 232 27.4 38.6 0.00 0.00 0.00 50 1018.7
20260503081550 2 144 4.8 6.4 0.00 0.00 0.00 91 1019.5
20260503071559 2 144 4.8 6.4 0.00 0.00 0.00 90 1019.4